C/2005 O1 ( NEAT )

Japanese version
Home page
Updated on November 12, 2005

---------------------------------------------------------------------

* Profile

Discovery Date July 27, 2005
Magnitude 19.1 mag
Discoverer Near-Earth-Asteroid Tracking Team (Jet Propulsion Laboratory)

* Orbital Elements

T 2005 May 17.3629 TT                                   MPC
q   3.590932             (2000.0)            P               Q
z  +0.019589       Peri.  324.7408      +0.8989937      -0.2830036
                   Node   304.7991      -0.2456251      -0.9576570
e   0.929659       Incl.  155.9810      -0.3625998      -0.0529338
>From 89 observations 2005 July 27-Oct. 7.

* Magnitudes Graph

        m1 = 11.0 + 5 log d + 10.0 log r

---------------------------------------------------------------------

The orbital elements are published on M.P.E.C. 2005-T68.
The magnitudes graphs are made with Comet for Windows.

---------------------------------------------------------------------

Copyright(C) Seiichi Yoshida (comet@aerith.net). All rights reserved.